Year,Month,Day,Hour,Minute,Value (Times are PST for temperature in C)
2014,07,08,00,00,20.60
2014,07,08,00,01,20.60
2014,07,08,00,02,20.50
2014,07,08,00,03,20.50
2014,07,08,00,04,20.40
2014,07,08,00,05,20.40
2014,07,08,00,06,20.40
2014,07,08,00,07,20.40
2014,07,08,00,08,20.30
2014,07,08,00,09,20.30
2014,07,08,00,10,20.30
2014,07,08,00,11,20.30
2014,07,08,00,12,20.20
2014,07,08,00,13,20.20
2014,07,08,00,14,20.20
2014,07,08,00,15,20.20
2014,07,08,00,16,20.20
2014,07,08,00,17,20.20
2014,07,08,00,18,20.10
2014,07,08,00,19,20.10
2014,07,08,00,20,20.10
2014,07,08,00,21,20.00
2014,07,08,00,22,20.00
2014,07,08,00,23,20.00
2014,07,08,00,24,20.00
2014,07,08,00,25,19.90
2014,07,08,00,26,19.90
2014,07,08,00,27,19.90
2014,07,08,00,28,19.90
2014,07,08,00,29,19.90
2014,07,08,00,30,19.80
2014,07,08,00,31,19.80
2014,07,08,00,32,19.80
2014,07,08,00,33,19.80
2014,07,08,00,34,19.80
2014,07,08,00,35,19.70
2014,07,08,00,36,19.70
2014,07,08,00,37,19.70
2014,07,08,00,38,19.60
2014,07,08,00,39,19.60
2014,07,08,00,40,19.60
2014,07,08,00,41,19.50
2014,07,08,00,42,19.50
2014,07,08,00,43,19.50
2014,07,08,00,44,19.40
2014,07,08,00,45,19.40
2014,07,08,00,46,19.40
2014,07,08,00,47,19.30
2014,07,08,00,48,19.30
2014,07,08,00,49,19.30
2014,07,08,00,50,19.30
2014,07,08,00,51,19.30
2014,07,08,00,52,19.20
2014,07,08,00,53,19.20
2014,07,08,00,54,19.20
2014,07,08,00,55,19.20
2014,07,08,00,56,19.20
2014,07,08,00,57,19.20
2014,07,08,00,58,19.10
2014,07,08,00,59,19.10
2014,07,08,01,00,19.10
2014,07,08,01,01,19.20
2014,07,08,01,02,19.20
2014,07,08,01,03,19.20
2014,07,08,01,04,19.20
2014,07,08,01,05,19.20
2014,07,08,01,06,19.20
2014,07,08,01,07,19.20
2014,07,08,01,08,19.20
2014,07,08,01,09,19.20
2014,07,08,01,10,19.20
2014,07,08,01,11,19.20
2014,07,08,01,12,19.20
2014,07,08,01,13,19.20
2014,07,08,01,14,19.20
2014,07,08,01,15,19.20
2014,07,08,01,16,19.20
2014,07,08,01,17,19.20
2014,07,08,01,18,19.20
2014,07,08,01,19,19.20
2014,07,08,01,20,19.20
2014,07,08,01,21,19.20
2014,07,08,01,22,19.20
2014,07,08,01,23,19.20
2014,07,08,01,24,19.20
2014,07,08,01,25,19.10
2014,07,08,01,26,19.10
2014,07,08,01,27,19.10
2014,07,08,01,28,19.10
2014,07,08,01,29,19.10
2014,07,08,01,30,19.10
2014,07,08,01,31,19.00
2014,07,08,01,32,19.00
2014,07,08,01,33,19.00
2014,07,08,01,34,18.90
2014,07,08,01,35,18.90
2014,07,08,01,36,18.90
2014,07,08,01,37,18.90
2014,07,08,01,38,18.90
2014,07,08,01,39,18.90
2014,07,08,01,40,18.90
2014,07,08,01,41,18.90
2014,07,08,01,42,18.90
2014,07,08,01,43,18.90
2014,07,08,01,44,18.80
2014,07,08,01,45,18.80
2014,07,08,01,46,18.80
2014,07,08,01,47,18.80
2014,07,08,01,48,18.70
2014,07,08,01,49,18.70
2014,07,08,01,50,18.70
2014,07,08,01,51,18.70
2014,07,08,01,52,18.60
2014,07,08,01,53,18.60
2014,07,08,01,54,18.60
2014,07,08,01,55,18.60
2014,07,08,01,56,18.60
2014,07,08,01,57,18.50
2014,07,08,01,58,18.50
2014,07,08,01,59,18.50
2014,07,08,02,00,18.40
2014,07,08,02,01,18.40
2014,07,08,02,02,18.40
2014,07,08,02,03,18.40
2014,07,08,02,04,18.30
2014,07,08,02,05,18.30
2014,07,08,02,06,18.30
2014,07,08,02,07,18.30
2014,07,08,02,08,18.30
2014,07,08,02,09,18.20
2014,07,08,02,10,18.20
2014,07,08,02,11,18.20
2014,07,08,02,12,18.20
2014,07,08,02,13,18.20
2014,07,08,02,14,18.10
2014,07,08,02,15,18.10
2014,07,08,02,16,18.10
2014,07,08,02,17,18.10
2014,07,08,02,18,18.10
2014,07,08,02,19,18.10
2014,07,08,02,20,18.10
2014,07,08,02,21,18.00
2014,07,08,02,22,18.00
2014,07,08,02,23,18.00
2014,07,08,02,24,18.00
2014,07,08,02,25,18.00
2014,07,08,02,26,18.00
2014,07,08,02,27,18.00
2014,07,08,02,28,18.00
2014,07,08,02,29,18.00
2014,07,08,02,30,17.90
2014,07,08,02,31,17.90
2014,07,08,02,32,17.90
2014,07,08,02,33,17.90
2014,07,08,02,34,17.90
2014,07,08,02,35,17.90
2014,07,08,02,36,17.90
2014,07,08,02,37,17.80
2014,07,08,02,38,17.80
2014,07,08,02,39,17.80
2014,07,08,02,40,17.80
2014,07,08,02,41,17.80
2014,07,08,02,42,17.80
2014,07,08,02,43,17.70
2014,07,08,02,44,17.70
2014,07,08,02,45,17.70
2014,07,08,02,46,17.70
2014,07,08,02,47,17.60
2014,07,08,02,48,17.60
2014,07,08,02,49,17.60
2014,07,08,02,50,17.60
2014,07,08,02,51,17.60
2014,07,08,02,52,17.50
2014,07,08,02,53,17.50
2014,07,08,02,54,17.40
2014,07,08,02,55,17.40
2014,07,08,02,56,17.40
2014,07,08,02,57,17.40
2014,07,08,02,58,17.30
2014,07,08,02,59,17.30
2014,07,08,03,00,17.30
2014,07,08,03,01,17.30
2014,07,08,03,02,17.20
2014,07,08,03,03,17.20
2014,07,08,03,04,17.20
2014,07,08,03,05,17.10
2014,07,08,03,06,17.10
2014,07,08,03,07,17.10
2014,07,08,03,08,17.00
2014,07,08,03,09,17.00
2014,07,08,03,10,17.00
2014,07,08,03,11,16.90
2014,07,08,03,12,16.90
2014,07,08,03,13,16.90
2014,07,08,03,14,16.80
2014,07,08,03,15,16.80
2014,07,08,03,16,16.80
2014,07,08,03,17,16.70
2014,07,08,03,18,16.70
2014,07,08,03,19,16.70
2014,07,08,03,20,16.70
2014,07,08,03,21,16.60
2014,07,08,03,22,16.60
2014,07,08,03,23,16.60
2014,07,08,03,24,16.50
2014,07,08,03,25,16.50
2014,07,08,03,26,16.40
2014,07,08,03,27,16.40
2014,07,08,03,28,16.40
2014,07,08,03,29,16.30
2014,07,08,03,30,16.30
2014,07,08,03,31,16.30
2014,07,08,03,32,16.30
2014,07,08,03,33,16.30
2014,07,08,03,34,16.20
2014,07,08,03,35,16.20
2014,07,08,03,36,16.20
2014,07,08,03,37,16.20
2014,07,08,03,38,16.10
2014,07,08,03,39,16.10
2014,07,08,03,40,16.10
2014,07,08,03,41,16.10
2014,07,08,03,42,16.00
2014,07,08,03,43,16.00
2014,07,08,03,44,15.90
2014,07,08,03,45,15.90
2014,07,08,03,46,15.90
2014,07,08,03,47,15.90
2014,07,08,03,48,15.90
2014,07,08,03,49,15.80
2014,07,08,03,50,15.80
2014,07,08,03,51,15.80
2014,07,08,03,52,15.80
2014,07,08,03,53,15.80
2014,07,08,03,54,15.80
2014,07,08,03,55,15.80
2014,07,08,03,56,15.80
2014,07,08,03,57,15.80
2014,07,08,03,58,15.80
2014,07,08,03,59,15.80
2014,07,08,04,00,15.80
2014,07,08,04,01,15.80
2014,07,08,04,02,15.80
2014,07,08,04,03,15.80
2014,07,08,04,04,15.80
2014,07,08,04,05,15.80
2014,07,08,04,06,15.80
2014,07,08,04,07,15.80
2014,07,08,04,08,15.80
2014,07,08,04,09,15.80
2014,07,08,04,10,15.80
2014,07,08,04,11,15.70
2014,07,08,04,12,15.70
2014,07,08,04,13,15.70
2014,07,08,04,14,15.70
2014,07,08,04,15,15.70
2014,07,08,04,16,15.70
2014,07,08,04,17,15.70
2014,07,08,04,18,15.60
2014,07,08,04,19,15.60
2014,07,08,04,20,15.60
2014,07,08,04,21,15.60
2014,07,08,04,22,15.60
2014,07,08,04,23,15.50
2014,07,08,04,24,15.50
2014,07,08,04,25,15.50
2014,07,08,04,26,15.50
2014,07,08,04,27,15.40
2014,07,08,04,28,15.40
2014,07,08,04,29,15.40
2014,07,08,04,30,15.40
2014,07,08,04,31,15.40
2014,07,08,04,32,15.30
2014,07,08,04,33,15.30
2014,07,08,04,34,15.30
2014,07,08,04,35,15.30
2014,07,08,04,36,15.30
2014,07,08,04,37,15.20
2014,07,08,04,38,15.20
2014,07,08,04,39,15.20
2014,07,08,04,40,15.20
2014,07,08,04,41,15.10
2014,07,08,04,42,15.10
2014,07,08,04,43,15.10
2014,07,08,04,44,15.10
2014,07,08,04,45,15.10
2014,07,08,04,46,15.00
2014,07,08,04,47,15.00
2014,07,08,04,48,15.00
2014,07,08,04,49,14.90
2014,07,08,04,50,14.90
2014,07,08,04,51,14.90
2014,07,08,04,52,14.90
2014,07,08,04,53,14.90
2014,07,08,04,54,14.80
2014,07,08,04,55,14.80
2014,07,08,04,56,14.80
2014,07,08,04,57,14.80
2014,07,08,04,58,14.80
2014,07,08,04,59,14.80
2014,07,08,05,00,14.80
2014,07,08,05,01,14.70
2014,07,08,05,02,14.70
2014,07,08,05,03,14.70
2014,07,08,05,04,14.70
2014,07,08,05,05,14.70
2014,07,08,05,06,14.70
2014,07,08,05,07,14.70
2014,07,08,05,08,14.60
2014,07,08,05,09,14.60
2014,07,08,05,10,14.60
2014,07,08,05,11,14.60
2014,07,08,05,12,14.60
2014,07,08,05,13,14.60
2014,07,08,05,14,14.60
2014,07,08,05,15,14.60
2014,07,08,05,16,14.50
2014,07,08,05,17,14.50
2014,07,08,05,18,14.50
2014,07,08,05,19,14.50
2014,07,08,05,20,14.50
2014,07,08,05,21,14.50
2014,07,08,05,22,14.50
2014,07,08,05,23,14.50
2014,07,08,05,24,14.50
2014,07,08,05,25,14.40
2014,07,08,05,26,14.40
2014,07,08,05,27,14.50
2014,07,08,05,28,14.50
2014,07,08,05,29,14.60
2014,07,08,05,30,14.60
2014,07,08,05,31,14.60
2014,07,08,05,32,14.60
2014,07,08,05,33,14.60
2014,07,08,05,34,14.60
2014,07,08,05,35,14.60
2014,07,08,05,36,14.60
2014,07,08,05,37,14.60
2014,07,08,05,38,14.60
2014,07,08,05,39,14.50
2014,07,08,05,40,14.60
2014,07,08,05,41,14.60
2014,07,08,05,42,14.50
2014,07,08,05,43,14.60
2014,07,08,05,44,14.60
2014,07,08,05,45,14.60
2014,07,08,05,46,14.60
2014,07,08,05,47,14.60
2014,07,08,05,48,14.60
2014,07,08,05,49,14.60
2014,07,08,05,50,14.60
2014,07,08,05,51,14.60
2014,07,08,05,52,14.60
2014,07,08,05,53,14.70
2014,07,08,05,54,14.70
2014,07,08,05,55,14.70
2014,07,08,05,56,14.70
2014,07,08,05,57,14.70
2014,07,08,05,58,14.70
2014,07,08,05,59,14.70
2014,07,08,06,00,14.70
2014,07,08,06,01,14.70
2014,07,08,06,02,14.70
2014,07,08,06,03,14.80
2014,07,08,06,04,14.80
2014,07,08,06,05,14.70
2014,07,08,06,06,14.80
2014,07,08,06,07,14.80
2014,07,08,06,08,14.80
2014,07,08,06,09,14.80
2014,07,08,06,10,14.80
2014,07,08,06,11,14.80
2014,07,08,06,12,14.90
2014,07,08,06,13,14.90
2014,07,08,06,14,14.90
2014,07,08,06,15,15.00
2014,07,08,06,16,15.00
2014,07,08,06,17,15.00
2014,07,08,06,18,15.10
2014,07,08,06,19,15.10
2014,07,08,06,20,15.10
2014,07,08,06,21,15.20
2014,07,08,06,22,15.30
2014,07,08,06,23,15.30
2014,07,08,06,24,15.40
2014,07,08,06,25,15.40
2014,07,08,06,26,15.50
2014,07,08,06,27,15.60
2014,07,08,06,28,15.60
2014,07,08,06,29,15.60
2014,07,08,06,30,15.70
2014,07,08,06,31,15.80
2014,07,08,06,32,15.90
2014,07,08,06,33,15.90
2014,07,08,06,34,16.00
2014,07,08,06,35,16.00
2014,07,08,06,36,16.00
2014,07,08,06,37,16.00
2014,07,08,06,38,16.10
2014,07,08,06,39,16.10
2014,07,08,06,40,16.10
2014,07,08,06,41,16.10
2014,07,08,06,42,16.20
2014,07,08,06,43,16.20
2014,07,08,06,44,16.20
2014,07,08,06,45,16.30
2014,07,08,06,46,16.30
2014,07,08,06,47,16.30
2014,07,08,06,48,16.30
2014,07,08,06,49,16.30
2014,07,08,06,50,16.30
2014,07,08,06,51,16.30
2014,07,08,06,52,16.30
2014,07,08,06,53,16.30
2014,07,08,06,54,16.30
2014,07,08,06,55,16.30
2014,07,08,06,56,16.30
2014,07,08,06,57,16.40
2014,07,08,06,58,16.40
2014,07,08,06,59,16.40
2014,07,08,07,00,16.40
2014,07,08,07,01,16.40
2014,07,08,07,02,16.40
2014,07,08,07,03,16.50
2014,07,08,07,04,16.50
2014,07,08,07,05,16.50
2014,07,08,07,06,16.60
2014,07,08,07,07,16.60
2014,07,08,07,08,16.70
2014,07,08,07,09,16.70
2014,07,08,07,10,16.80
2014,07,08,07,11,16.80
2014,07,08,07,12,16.90
2014,07,08,07,13,17.00
2014,07,08,07,14,17.00
2014,07,08,07,15,17.10
2014,07,08,07,16,17.10
2014,07,08,07,17,17.20
2014,07,08,07,18,17.20
2014,07,08,07,19,17.30
2014,07,08,07,20,17.30
2014,07,08,07,21,17.30
2014,07,08,07,22,17.30
2014,07,08,07,23,17.30
2014,07,08,07,24,17.40
2014,07,08,07,25,17.40
2014,07,08,07,26,17.40
2014,07,08,07,27,17.40
2014,07,08,07,28,17.50
2014,07,08,07,29,17.50
2014,07,08,07,30,17.50
2014,07,08,07,31,17.50
2014,07,08,07,32,17.50
2014,07,08,07,33,17.50
2014,07,08,07,34,17.50
2014,07,08,07,35,17.50
2014,07,08,07,36,17.50
2014,07,08,07,37,17.60
2014,07,08,07,38,17.60
2014,07,08,07,39,17.60
2014,07,08,07,40,17.60
2014,07,08,07,41,17.60
2014,07,08,07,42,17.60
2014,07,08,07,43,17.60
2014,07,08,07,44,17.70
2014,07,08,07,45,17.70
2014,07,08,07,46,17.70
2014,07,08,07,47,17.70
2014,07,08,07,48,17.70
2014,07,08,07,49,17.80
2014,07,08,07,50,17.80
2014,07,08,07,51,17.80
2014,07,08,07,52,17.80
2014,07,08,07,53,17.80
2014,07,08,07,54,17.90
2014,07,08,07,55,17.90
2014,07,08,07,56,17.90
2014,07,08,07,57,18.00
2014,07,08,07,58,18.10
2014,07,08,07,59,18.10
2014,07,08,08,00,18.10
2014,07,08,08,01,18.20
2014,07,08,08,02,18.20
2014,07,08,08,03,18.20
2014,07,08,08,04,18.20
2014,07,08,08,05,18.30
2014,07,08,08,06,18.30
2014,07,08,08,07,18.30
2014,07,08,08,08,18.30
2014,07,08,08,09,18.30
2014,07,08,08,10,18.30
2014,07,08,08,11,18.30
2014,07,08,08,12,18.30
2014,07,08,08,13,18.30
2014,07,08,08,14,18.30
2014,07,08,08,15,18.30
2014,07,08,08,16,18.30
2014,07,08,08,17,18.30
2014,07,08,08,18,18.20
2014,07,08,08,19,18.20
2014,07,08,08,20,18.20
2014,07,08,08,21,18.20
2014,07,08,08,22,18.20
2014,07,08,08,23,18.20
2014,07,08,08,24,18.20
2014,07,08,08,25,18.20
2014,07,08,08,26,18.20
2014,07,08,08,27,18.20
2014,07,08,08,28,18.30
2014,07,08,08,29,18.30
2014,07,08,08,30,18.30
2014,07,08,08,31,18.30
2014,07,08,08,32,18.30
2014,07,08,08,33,18.30
2014,07,08,08,34,18.30
2014,07,08,08,35,18.30
2014,07,08,08,36,18.20
2014,07,08,08,37,18.20
2014,07,08,08,38,18.20
2014,07,08,08,39,18.20
2014,07,08,08,40,18.20
2014,07,08,08,41,18.20
2014,07,08,08,42,18.20
2014,07,08,08,43,18.20
2014,07,08,08,44,18.20
2014,07,08,08,45,18.20
2014,07,08,08,46,18.20
2014,07,08,08,47,18.30
2014,07,08,08,48,18.30
2014,07,08,08,49,18.30
2014,07,08,08,50,18.40
2014,07,08,08,51,18.40
2014,07,08,08,52,18.50
2014,07,08,08,53,18.50
2014,07,08,08,54,18.60
2014,07,08,08,55,18.60
2014,07,08,08,56,18.70
2014,07,08,08,57,18.70
2014,07,08,08,58,18.70
2014,07,08,08,59,18.80
2014,07,08,09,00,18.80
2014,07,08,09,01,18.80
2014,07,08,09,02,18.80
2014,07,08,09,03,18.80
2014,07,08,09,04,18.80
2014,07,08,09,05,18.90
2014,07,08,09,06,18.90
2014,07,08,09,07,18.90
2014,07,08,09,08,18.90
2014,07,08,09,09,18.80
2014,07,08,09,10,18.80
2014,07,08,09,11,18.80
2014,07,08,09,12,18.80
2014,07,08,09,13,18.80
2014,07,08,09,14,18.80
2014,07,08,09,15,18.80
2014,07,08,09,16,18.80
2014,07,08,09,17,18.80
2014,07,08,09,18,18.80
2014,07,08,09,19,18.80
2014,07,08,09,20,18.80
2014,07,08,09,21,18.90
2014,07,08,09,22,18.90
2014,07,08,09,23,19.00
2014,07,08,09,24,19.00
2014,07,08,09,25,19.00
2014,07,08,09,26,19.00
2014,07,08,09,27,19.00
2014,07,08,09,28,19.00
2014,07,08,09,29,19.00
2014,07,08,09,30,18.90
2014,07,08,09,31,18.90
2014,07,08,09,32,18.80
2014,07,08,09,33,18.80
2014,07,08,09,34,18.80
2014,07,08,09,35,18.80
2014,07,08,09,36,18.90
2014,07,08,09,37,18.90
2014,07,08,09,38,19.00
2014,07,08,09,39,19.10
2014,07,08,09,40,19.10
2014,07,08,09,41,19.10
2014,07,08,09,42,19.20
2014,07,08,09,43,19.30
2014,07,08,09,44,19.40
2014,07,08,09,45,19.40
2014,07,08,09,46,19.50
2014,07,08,09,47,19.50
2014,07,08,09,48,19.50
2014,07,08,09,49,19.60
2014,07,08,09,50,19.60
2014,07,08,09,51,19.60
2014,07,08,09,52,19.60
2014,07,08,09,53,19.70
2014,07,08,09,54,19.70
2014,07,08,09,55,19.80
2014,07,08,09,56,19.80
2014,07,08,09,57,19.80
2014,07,08,09,58,19.80
2014,07,08,09,59,19.80
2014,07,08,10,00,19.80
2014,07,08,10,01,19.80
2014,07,08,10,02,19.90
2014,07,08,10,03,19.90
2014,07,08,10,04,19.90
2014,07,08,10,05,19.90
2014,07,08,10,06,19.90
2014,07,08,10,07,19.80
2014,07,08,10,08,19.80
2014,07,08,10,09,19.70
2014,07,08,10,10,19.70
2014,07,08,10,11,19.70
2014,07,08,10,12,19.70
2014,07,08,10,13,19.70
2014,07,08,10,14,19.70
2014,07,08,10,15,19.70
2014,07,08,10,16,19.80
2014,07,08,10,17,19.80
2014,07,08,10,18,19.70
2014,07,08,10,19,19.70
2014,07,08,10,20,19.80
2014,07,08,10,21,19.80
2014,07,08,10,22,19.80
2014,07,08,10,23,19.80
2014,07,08,10,24,19.80
2014,07,08,10,25,19.80
2014,07,08,10,26,19.80
2014,07,08,10,27,19.90
2014,07,08,10,28,20.00
2014,07,08,10,29,20.10
2014,07,08,10,30,20.00
2014,07,08,10,31,20.00
2014,07,08,10,32,19.90
2014,07,08,10,33,19.90
2014,07,08,10,34,19.80
2014,07,08,10,35,19.80
2014,07,08,10,36,19.70
2014,07,08,10,37,19.70
2014,07,08,10,38,19.60
2014,07,08,10,39,19.60
2014,07,08,10,40,19.50
2014,07,08,10,41,19.50
2014,07,08,10,42,19.40
2014,07,08,10,43,19.40
2014,07,08,10,44,19.40
2014,07,08,10,45,19.30
2014,07,08,10,46,19.30
2014,07,08,10,47,19.30
2014,07,08,10,48,19.30
2014,07,08,10,49,19.20
2014,07,08,10,50,19.20
2014,07,08,10,51,19.20
2014,07,08,10,52,19.20
2014,07,08,10,53,19.20
2014,07,08,10,54,19.20
2014,07,08,10,55,19.20
2014,07,08,10,56,19.30
2014,07,08,10,57,19.40
2014,07,08,10,58,19.40
2014,07,08,10,59,19.50
2014,07,08,11,00,19.70
2014,07,08,11,01,19.80
2014,07,08,11,02,19.90
2014,07,08,11,03,19.90
2014,07,08,11,04,19.90
2014,07,08,11,05,19.90
2014,07,08,11,06,20.00
2014,07,08,11,07,20.00
2014,07,08,11,08,20.10
2014,07,08,11,09,20.10
2014,07,08,11,10,20.10
2014,07,08,11,11,20.10
2014,07,08,11,12,20.10
2014,07,08,11,13,20.10
2014,07,08,11,14,20.10
2014,07,08,11,15,20.20
2014,07,08,11,16,20.30
2014,07,08,11,17,20.30
2014,07,08,11,18,20.30
2014,07,08,11,19,20.30
2014,07,08,11,20,20.30
2014,07,08,11,21,20.30
2014,07,08,11,22,20.30
2014,07,08,11,23,20.20
2014,07,08,11,24,20.20
2014,07,08,11,25,20.20
2014,07,08,11,26,20.20
2014,07,08,11,27,20.20
2014,07,08,11,28,20.20
2014,07,08,11,29,20.20
2014,07,08,11,30,20.20
2014,07,08,11,31,20.20
2014,07,08,11,32,20.20
2014,07,08,11,33,20.10
2014,07,08,11,34,20.00
2014,07,08,11,35,20.00
2014,07,08,11,36,20.10
2014,07,08,11,37,20.10
2014,07,08,11,38,20.20
2014,07,08,11,39,20.30
2014,07,08,11,40,20.40
2014,07,08,11,41,20.50
2014,07,08,11,42,20.50
2014,07,08,11,43,20.60
2014,07,08,11,44,20.70
2014,07,08,11,45,20.80
2014,07,08,11,46,20.80
2014,07,08,11,47,20.90
2014,07,08,11,48,20.90
2014,07,08,11,49,20.90
2014,07,08,11,50,21.00
2014,07,08,11,51,21.00
2014,07,08,11,52,20.90
2014,07,08,11,53,20.90
2014,07,08,11,54,20.90
2014,07,08,11,55,20.90
2014,07,08,11,56,20.90
2014,07,08,11,57,21.00
2014,07,08,11,58,21.00
2014,07,08,11,59,21.00
2014,07,08,12,00,20.90
2014,07,08,12,01,20.80
2014,07,08,12,02,20.70
2014,07,08,12,03,20.60
2014,07,08,12,04,20.60
2014,07,08,12,05,20.60
2014,07,08,12,06,20.60
2014,07,08,12,07,20.60
2014,07,08,12,08,20.60
2014,07,08,12,09,20.70
2014,07,08,12,10,20.80
2014,07,08,12,11,20.80
2014,07,08,12,12,21.00
2014,07,08,12,13,21.10
2014,07,08,12,14,21.30
2014,07,08,12,15,21.30
2014,07,08,12,16,21.30
2014,07,08,12,17,21.30
2014,07,08,12,18,21.20
2014,07,08,12,19,21.00
2014,07,08,12,20,20.90
2014,07,08,12,21,20.80
2014,07,08,12,22,20.80
2014,07,08,12,23,20.90
2014,07,08,12,24,21.00
2014,07,08,12,25,21.10
2014,07,08,12,26,21.20
2014,07,08,12,27,21.30
2014,07,08,12,28,21.30
2014,07,08,12,29,21.30
2014,07,08,12,30,21.30
2014,07,08,12,31,21.30
2014,07,08,12,32,21.30
2014,07,08,12,33,21.40
2014,07,08,12,34,21.50
2014,07,08,12,35,21.60
2014,07,08,12,36,21.70
2014,07,08,12,37,21.70
2014,07,08,12,38,21.70
2014,07,08,12,39,21.70
2014,07,08,12,40,21.70
2014,07,08,12,41,21.70
2014,07,08,12,42,21.70
2014,07,08,12,43,21.70
2014,07,08,12,44,21.90
2014,07,08,12,45,22.00
2014,07,08,12,46,22.10
2014,07,08,12,47,22.10
2014,07,08,12,48,22.20
2014,07,08,12,49,22.20
2014,07,08,12,50,22.20
2014,07,08,12,51,22.30
2014,07,08,12,52,22.30
2014,07,08,12,53,22.30
2014,07,08,12,54,22.30
2014,07,08,12,55,22.30
2014,07,08,12,56,22.20
2014,07,08,12,57,22.20
2014,07,08,12,58,22.20
2014,07,08,12,59,22.30
2014,07,08,13,00,22.50
2014,07,08,13,01,22.70
2014,07,08,13,02,22.80
2014,07,08,13,03,23.00
2014,07,08,13,04,23.20
2014,07,08,13,05,23.40
2014,07,08,13,06,23.50
2014,07,08,13,07,23.60
2014,07,08,13,08,23.70
2014,07,08,13,09,23.80
2014,07,08,13,10,23.80
2014,07,08,13,11,23.70
2014,07,08,13,12,23.60
2014,07,08,13,13,23.50
2014,07,08,13,14,23.50
2014,07,08,13,15,23.40
2014,07,08,13,16,23.40
2014,07,08,13,17,23.30
2014,07,08,13,18,23.30
2014,07,08,13,19,23.30
2014,07,08,13,20,23.30
2014,07,08,13,21,23.30
2014,07,08,13,22,23.30
2014,07,08,13,23,23.30
2014,07,08,13,24,23.30
2014,07,08,13,25,23.40
2014,07,08,13,26,23.40
2014,07,08,13,27,23.30
2014,07,08,13,28,23.30
2014,07,08,13,29,23.40
2014,07,08,13,30,23.40
2014,07,08,13,31,23.40
2014,07,08,13,32,23.40
2014,07,08,13,33,23.40
2014,07,08,13,34,23.50
2014,07,08,13,35,23.50
2014,07,08,13,36,23.60
2014,07,08,13,37,23.60
2014,07,08,13,38,23.60
2014,07,08,13,39,23.60
2014,07,08,13,40,23.60
2014,07,08,13,41,23.60
2014,07,08,13,42,23.70
2014,07,08,13,43,23.70
2014,07,08,13,44,23.70
2014,07,08,13,45,23.70
2014,07,08,13,46,23.80
2014,07,08,13,47,23.90
2014,07,08,13,48,23.90
2014,07,08,13,49,23.90
2014,07,08,13,50,23.90
2014,07,08,13,51,23.90
2014,07,08,13,52,23.90
2014,07,08,13,53,23.90
2014,07,08,13,54,23.90
2014,07,08,13,55,23.90
2014,07,08,13,56,23.90
2014,07,08,13,57,23.90
2014,07,08,13,58,23.80
2014,07,08,13,59,23.90
2014,07,08,14,00,24.10
2014,07,08,14,01,24.20
2014,07,08,14,02,24.30
2014,07,08,14,03,24.20
2014,07,08,14,04,24.10
2014,07,08,14,05,24.00
2014,07,08,14,06,23.90
2014,07,08,14,07,23.90
2014,07,08,14,08,23.90
2014,07,08,14,09,23.80
2014,07,08,14,10,23.80
2014,07,08,14,11,23.80
2014,07,08,14,12,23.70
2014,07,08,14,13,23.80
2014,07,08,14,14,23.80
2014,07,08,14,15,23.80
2014,07,08,14,16,23.80
2014,07,08,14,17,23.90
2014,07,08,14,18,23.90
2014,07,08,14,19,23.90
2014,07,08,14,20,23.90
2014,07,08,14,21,23.90
2014,07,08,14,22,23.90
2014,07,08,14,23,23.90
2014,07,08,14,24,24.00
2014,07,08,14,25,24.00
2014,07,08,14,26,24.10
2014,07,08,14,27,24.10
2014,07,08,14,28,24.20
2014,07,08,14,29,24.30
2014,07,08,14,30,24.40
2014,07,08,14,31,24.50
2014,07,08,14,32,24.70
2014,07,08,14,33,24.80
2014,07,08,14,34,24.80
2014,07,08,14,35,24.90
2014,07,08,14,36,24.90
2014,07,08,14,37,25.00
2014,07,08,14,38,25.00
2014,07,08,14,39,24.90
2014,07,08,14,40,24.80
2014,07,08,14,41,24.80
2014,07,08,14,42,24.80
2014,07,08,14,43,24.70
2014,07,08,14,44,24.60
2014,07,08,14,45,24.60
2014,07,08,14,46,24.60
2014,07,08,14,47,24.60
2014,07,08,14,48,24.50
2014,07,08,14,49,24.50
2014,07,08,14,50,24.70
2014,07,08,14,51,24.80
2014,07,08,14,52,24.80
2014,07,08,14,53,24.80
2014,07,08,14,54,24.80
2014,07,08,14,55,24.70
2014,07,08,14,56,24.50
2014,07,08,14,57,24.40
2014,07,08,14,58,24.40
2014,07,08,14,59,24.30
2014,07,08,15,00,24.30
2014,07,08,15,01,24.30
2014,07,08,15,02,24.30
2014,07,08,15,03,24.30
2014,07,08,15,04,24.30
2014,07,08,15,05,24.30
2014,07,08,15,06,24.40
2014,07,08,15,07,24.50
2014,07,08,15,08,24.60
2014,07,08,15,09,24.70
2014,07,08,15,10,24.80
2014,07,08,15,11,24.80
2014,07,08,15,12,24.80
2014,07,08,15,13,24.80
2014,07,08,15,14,24.80
2014,07,08,15,15,24.80
2014,07,08,15,16,24.80
2014,07,08,15,17,24.80
2014,07,08,15,18,24.80
2014,07,08,15,19,24.80
